Satellite: NOAA-12
Catalog number: 21263
Epoch time:      09365.46990268
Element set:     394
Inclination:      098.7696 deg
RA of node:       013.6154 deg
Eccentricity:    0.0011638
Arg of perigee:   296.4850 deg
Mean anomaly:     063.5139 deg
Mean motion:   14.25609058 rev/day
Decay rate:        2.3e-07 rev/day^2
Epoch rev:           96850
Checksum:              329

Satellite: MET-3/5
Catalog number: 21655
Epoch time:      09364.90907451
Element set:    0705
Inclination:      082.5576 deg
RA of node:       067.5343 deg
Eccentricity:    0.0014622
Arg of perigee:   053.0209 deg
Mean anomaly:     307.2258 deg
Mean motion:   13.17023520 rev/day
Decay rate:        5.1e-07 rev/day^2
Epoch rev:           88352
Checksum:              285

Satellite: MET-2/21
Catalog number: 22782
Epoch time:      09364.58375761
Element set:     655
Inclination:      082.5470 deg
RA of node:       026.2078 deg
Eccentricity:    0.0022948
Arg of perigee:   152.2325 deg
Mean anomaly:     208.0073 deg
Mean motion:   13.83639847 rev/day
Decay rate:       -8.0e-08 rev/day^2
Epoch rev:           82476
Checksum:              322

Satellite: OKEAN-4
Catalog number: 23317
Epoch time:      09364.88618362
Element set:    0114
Inclination:      082.5396 deg
RA of node:       150.9324 deg
Eccentricity:    0.0023816
Arg of perigee:   077.1166 deg
Mean anomaly:     283.2698 deg
Mean motion:   14.82752024 rev/day
Decay rate:       1.24e-06 rev/day^2
Epoch rev:           82151
Checksum:              302

Satellite: NOAA-14
Catalog number: 23455
Epoch time:      09365.41306004
Element set:     888
Inclination:      098.8936 deg
RA of node:       082.2346 deg
Eccentricity:    0.0009395
Arg of perigee:   357.0596 deg
Mean anomaly:     003.0538 deg
Mean motion:   14.13775335 rev/day
Decay rate:       -5.9e-07 rev/day^2
Epoch rev:           77379
Checksum:              335

Satellite: NOAA-15
Catalog number: 25338
Epoch time:      09365.24735577
Element set:     214
Inclination:      098.6034 deg
RA of node:       350.3255 deg
Eccentricity:    0.0010289
Arg of perigee:   199.9033 deg
Mean anomaly:     160.1759 deg
Mean motion:   14.24799966 rev/day
Decay rate:        5.4e-07 rev/day^2
Epoch rev:           60483
Checksum:              331

Satellite: RESURS
Catalog number: 25394
Epoch time:      09365.71890027
Element set:     395
Inclination:      098.3190 deg
RA of node:       027.8122 deg
Eccentricity:    0.0001816
Arg of perigee:   023.8797 deg
Mean anomaly:     336.2473 deg
Mean motion:   14.24191445 rev/day
Decay rate:       -3.3e-07 rev/day^2
Epoch rev:           59651
Checksum:              307

Satellite: FENGYUN1
Catalog number: 25730
Epoch time:      09364.84001038
Element set:    0937
Inclination:      098.7723 deg
RA of node:       329.3029 deg
Eccentricity:    0.0024412
Arg of perigee:   018.1978 deg
Mean anomaly:     342.0059 deg
Mean motion:   14.08157606 rev/day
Decay rate:       5.75e-06 rev/day^2
Epoch rev:           54799
Checksum:              315

Satellite: OKEAN-0
Catalog number: 25860
Epoch time:      09364.88568622
Element set:    0876
Inclination:      097.8106 deg
RA of node:       338.5196 deg
Eccentricity:    0.0000533
Arg of perigee:   063.8635 deg
Mean anomaly:     296.2625 deg
Mean motion:   14.73605444 rev/day
Decay rate:        6.5e-07 rev/day^2
Epoch rev:           56211
Checksum:              324

Satellite: NOAA-16
Catalog number: 26536
Epoch time:      09365.21060233
Element set:     693
Inclination:      099.1778 deg
RA of node:       013.6628 deg
Eccentricity:    0.0011243
Arg of perigee:   089.4637 deg
Mean anomaly:     270.7822 deg
Mean motion:   14.12543602 rev/day
Decay rate:       1.50e-06 rev/day^2
Epoch rev:           47811
Checksum:              295

Satellite: NOAA-17
Catalog number: 27453
Epoch time:      09365.15039810
Element set:     692
Inclination:      098.4586 deg
RA of node:       057.1598 deg
Eccentricity:    0.0010790
Arg of perigee:   268.6180 deg
Mean anomaly:     091.3784 deg
Mean motion:   14.24118200 rev/day
Decay rate:       -2.5e-07 rev/day^2
Epoch rev:           39078
Checksum:              320

Satellite: NOAA-18
Catalog number: 28654
Epoch time:      09365.13969182
Element set:     174
Inclination:      098.9311 deg
RA of node:       307.0613 deg
Eccentricity:    0.0014468
Arg of perigee:   164.2358 deg
Mean anomaly:     195.9272 deg
Mean motion:   14.11313304 rev/day
Decay rate:      -1.49e-06 rev/day^2
Epoch rev:           23773
Checksum:              314

Satellite: NOAA-19
Catalog number: 33591
Epoch time:      09365.09124009
Element set:     381
Inclination:      098.7710 deg
RA of node:       305.9458 deg
Eccentricity:    0.0014877
Arg of perigee:   047.7258 deg
Mean anomaly:     312.5149 deg
Mean motion:   14.11013667 rev/day
Decay rate:       -6.0e-08 rev/day^2
Epoch rev:            4620
Checksum:              303

/EX
SB KEPS @ AMSAT  $ORB09365.M
Orbital Elements  09365.MISC

HR AMSAT ORBITAL ELEMENTS FOR MANNED AND MISCELLANEOUS SATELLITES
FROM WA5QGD FORT WORTH,TX December 31, 2009
Send Subscribe/unsubscribe to KEPS at http://www.amsat.org/mailman/listinfo/kep
BID: ORB09365.M
TO ALL RADIO AMATEURS BT

